CW1648 Weather Reports


time (UTC)temp
C
wind
direction
speed
KPH
gust
KPH
rain 1hr
cm
rain 24hr
cm
rain mn
cm
humidity
%
barometer
mb
20260504215118 22 212 1.6 12.9 0.00 0.00 0.00 35 1007.2
20260504215113 22 185 0.0 12.9 0.00 0.00 0.00 35 1007.1
20260504215020 22 243 0.0 12.9 0.00 0.00 0.00 35 1006.9
20260504214903 22 196 1.6 12.9 0.00 0.00 0.00 36 1007.1
20260504214802 22 178 1.6 12.9 0.00 0.00 0.00 36 1007.1
20260504214723 22 212 1.6 12.9 0.00 0.00 0.00 35 1007.1
20260504214701 22 227 0.0 12.9 0.00 0.00 0.00 35 1007.1
20260504214615 22 175 0.0 9.7 0.00 0.00 0.00 35 1007.1
20260504214610 22 183 0.0 9.7 0.00 0.00 0.00 35 1007.1
20260504214520 22 179 0.0 9.7 0.00 0.00 0.00 35 1006.8
20260504214359 22 221 0.0 9.7 0.00 0.00 0.00 35 1007.1
20260504214300 22 197 0.0 12.9 0.00 0.00 0.00 36 1007.2
20260504214222 22 186 0.0 12.9 0.00 0.00 0.00 35 1007.2
20260504214159 22 188 0.0 12.9 0.00 0.00 0.00 35 1007.1
20260504214058 22 204 0.0 12.9 0.00 0.00 0.00 37 1007.2
20260504214020 22 190 0.0 12.9 0.00 0.00 0.00 36 1006.9
20260504214012 22 153 0.0 12.9 0.00 0.00 0.00 36 1007.1
20260504214006 22 208 0.0 12.9 0.00 0.00 0.00 36 1007.2
20260504213816 22 212 0.0 12.9 0.00 0.00 0.00 36 1007.2
20260504213811 22 206 0.0 12.9 0.00 0.00 0.00 36 1007.2
20260504213803 22 199 0.0 12.9 0.00 0.00 0.00 36 1007.2
20260504213556 22 234 0.0 12.9 0.00 0.00 0.00 35 1007.1
20260504213521 22 236 0.0 12.9 0.00 0.00 0.00 35 1006.9
20260504213456 22 250 0.0 12.9 0.00 0.00 0.00 36 1007.2
20260504213354 22 207 0.0 12.9 0.00 0.00 0.00 35 1007.1
20260504213254 22 223 0.0 11.3 0.00 0.00 0.00 35 1007.1
20260504213219 22 202 0.0 9.7 0.00 0.00 0.00 35 1007.1
20260504213154 22 187 0.0 9.7 0.00 0.00 0.00 35 1007.1
20260504213052 22 188 0.0 11.3 0.00 0.00 0.00 35 1007.1
20260504213050 22 228 3.2 9.7 0.00 0.00 0.00 36 1006.8
20260504212952 22 209 0.0 11.3 0.00 0.00 0.00 35 1007.1
20260504212852 22 178 0.0 11.3 0.00 0.00 0.00 35 1007.1
20260504212810 22 195 1.6 14.5 0.00 0.00 0.00 35 1007.1
20260504212804 22 165 1.6 14.5 0.00 0.00 0.00 35 1007.1
20260504212756 22 191 1.6 14.5 0.00 0.00 0.00 35 1007.1
20260504212603 22 195 1.6 14.5 0.00 0.00 0.00 35 1007.2
20260504212558 22 254 1.6 14.5 0.00 0.00 0.00 36 1007.1
20260504212520 22 169 0.0 14.5 0.00 0.00 0.00 35 1006.9
20260504212346 22 232 1.6 14.5 0.00 0.00 0.00 34 1007.2
20260504212246 22 215 1.6 14.5 0.00 0.00 0.00 34 1007.2
20260504212220 22 213 1.6 14.5 0.00 0.00 0.00 34 1007.2
20260504212145 22 123 0.0 14.5 0.00 0.00 0.00 34 1007.1
20260504212045 22 149 0.0 14.5 0.00 0.00 0.00 35 1007.1
20260504212020 22 160 0.0 14.5 0.00 0.00 0.00 35 1006.9
20260504211943 22 246 0.0 14.5 0.00 0.00 0.00 35 1007.2
20260504211843 22 234 0.0 14.5 0.00 0.00 0.00 35 1007.1
20260504211742 22 222 0.0 6.4 0.00 0.00 0.00 36 1007.1
20260504211720 22 190 0.0 6.4 0.00 0.00 0.00 36 1007.1
20260504211643 22 225 0.0 6.4 0.00 0.00 0.00 37 1007.1
20260504211542 22 222 0.0 6.4 0.00 0.00 0.00 36 1007.2
20260504211521 22 214 0.0 4.8 0.00 0.00 0.00 35 1006.8
20260504211442 22 199 0.0 6.4 0.00 0.00 0.00 35 1007.1
20260504211340 22 225 0.0 11.3 0.00 0.00 0.00 34 1007.1
20260504211240 22 250 0.0 11.3 0.00 0.00 0.00 35 1007.1
20260504211221 22 230 0.0 11.3 0.00 0.00 0.00 35 1007.1
20260504211153 22 237 1.6 16.1 0.00 0.00 0.00 35 1007.1
20260504211148 22 199 0.0 11.3 0.00 0.00 0.00 34 1007.1
20260504211020 22 205 0.0 14.5 0.00 0.00 0.00 35 1006.8
20260504210937 22 211 1.6 16.1 0.00 0.00 0.00 35 1007.1
20260504210851 22 205 1.6 16.1 0.00 0.00 0.00 34 1007.1
20260504210846 22 198 1.6 16.1 0.00 0.00 0.00 35 1007.1
20260504210719 22 193 1.6 16.1 0.00 0.00 0.00 34 1007.1
20260504210636 22 180 1.6 16.1 0.00 0.00 0.00 34 1007.1
20260504210551 22 217 1.6 16.1 0.00 0.00 0.00 35 1007.2
20260504210545 22 183 1.6 16.1 0.00 0.00 0.00 35 1007.1
20260504210520 22 190 0.0 14.5 0.00 0.00 0.00 35 1006.9
20260504210409 22 179 1.6 16.1 0.00 0.00 0.00 35 1007.1
20260504210405 22 196 1.6 16.1 0.00 0.00 0.00 34 1007.1
20260504210359 22 209 1.6 16.1 0.00 0.00 0.00 35 1007.2
20260504210243 22 196 1.6 16.1 0.00 0.00 0.00 35 1007.1
20260504210035 23 186 1.6 12.9 0.00 0.00 0.00 34 1007.1
20260504210020 23 178 8.0 12.9 0.00 0.00 0.00 34 1006.8
20260504205934 23 211 0.0 12.9 0.00 0.00 0.00 34 1007.1
20260504205834 23 192 0.0 12.9 0.00 0.00 0.00 34 1007.1
20260504205733 23 178 0.0 12.9 0.00 0.00 0.00 34 1007.1
20260504205720 23 171 0.0 12.9 0.00 0.00 0.00 34 1007.1
20260504205646 23 214 0.0 12.9 0.00 0.00 0.00 33 1007.1
20260504205640 23 201 0.0 12.9 0.00 0.00 0.00 34 1007.1
20260504205520 23 263 6.4 11.3 0.00 0.00 0.00 33 1006.8
20260504205454 23 194 0.0 4.8 0.00 0.00 0.00 34 1007.2
20260504205449 23 188 0.0 4.8 0.00 0.00 0.00 35 1007.2
20260504205444 23 211 0.0 4.8 0.00 0.00 0.00 34 1007.1
20260504205435 23 208 0.0 4.8 0.00 0.00 0.00 34 1007.2
20260504205128 23 211 0.0 6.4 0.00 0.00 0.00 34 1007.1
20260504205050 23 227 0.0 6.4 0.00 0.00 0.00 35 1006.8
20260504205028 23 224 0.0 6.4 0.00 0.00 0.00 35 1007.2
20260504204928 23 209 0.0 6.4 0.00 0.00 0.00 34 1007.1
20260504204826 23 219 0.0 6.4 0.00 0.00 0.00 34 1007.1
20260504204726 23 218 0.0 6.4 0.00 0.00 0.00 35 1007.1
20260504204717 23 195 0.0 6.4 0.00 0.00 0.00 35 1007.1
20260504204627 23 246 0.0 12.9 0.00 0.00 0.00 34 1007.1
20260504204548 23 269 0.0 12.9 0.00 0.00 0.00 34 1007.1
20260504204520 23 229 0.0 12.9 0.00 0.00 0.00 34 1006.8
20260504204434 23 262 0.0 12.9 0.00 0.00 0.00 34 1007.1
20260504204225 23 183 0.0 12.9 0.00 0.00 0.00 35 1007.1
20260504204217 23 194 0.0 12.9 0.00 0.00 0.00 35 1007.1
20260504204137 23 225 0.0 12.9 0.00 0.00 0.00 34 1007.2
20260504204132 23 195 0.0 12.9 0.00 0.00 0.00 34 1007.2
20260504204035 23 229 0.0 12.9 0.00 0.00 0.00 34 1006.8
20260504203936 23 236 0.0 12.9 0.00 0.00 0.00 35 1007.2
20260504203931 23 234 0.0 12.9 0.00 0.00 0.00 34 1007.1
20260504203723 23 243 0.0 12.9 0.00 0.00 0.00 34 1007.2
20260504203717 23 238 0.0 12.9 0.00 0.00 0.00 34 1007.2
20260504203621 23 261 0.0 11.3 0.00 0.00 0.00 34 1007.2
20260504203614 23 187 0.0 11.3 0.00 0.00 0.00 34 1007.1
20260504203608 23 225 0.0 11.3 0.00 0.00 0.00 34 1007.2
20260504203520 23 197 0.0 11.3 0.00 0.00 0.00 33 1006.9
20260504203455 23 227 0.0 6.4 0.00 0.00 0.00 34 1007.2
20260504203451 23 207 0.0 6.4 0.00 0.00 0.00 33 1007.2
20260504203446 23 213 0.0 11.3 0.00 0.00 0.00 33 1007.2
20260504203332 23 179 0.0 11.3 0.00 0.00 0.00 33 1007.2
20260504203216 23 189 0.0 11.3 0.00 0.00 0.00 34 1007.1
20260504203208 23 234 0.0 6.4 0.00 0.00 0.00 33 1007.2
20260504203021 23 223 0.0 6.4 0.00 0.00 0.00 34 1006.9
20260504202832 23 199 0.0 6.4 0.00 0.00 0.00 34 1007.2
20260504202825 23 196 0.0 6.4 0.00 0.00 0.00 34 1007.2
20260504202606 23 226 0.0 3.2 0.00 0.00 0.00 34 1007.2
20260504202600 23 192 0.0 3.2 0.00 0.00 0.00 35 1007.2
20260504202520 23 238 0.0 3.2 0.00 0.00 0.00 35 1006.9
20260504202337 23 240 0.0 3.2 0.00 0.00 0.00 34 1007.2
20260504202223 23 226 0.0 3.2 0.00 0.00 0.00 34 1007.3
20260504202020 23 244 0.0 6.4 0.00 0.00 0.00 36 1007.0
20260504202013 23 279 0.0 6.4 0.00 0.00 0.00 36 1007.3
20260504201948 23 216 0.0 6.4 0.00 0.00 0.00 35 1007.3
20260504201913 23 276 0.0 6.4 0.00 0.00 0.00 34 1007.3
20260504201840 23 263 0.0 14.5 0.00 0.00 0.00 35 1007.3
20260504201835 23 213 0.0 6.4 0.00 0.00 0.00 35 1007.3
20260504201720 23 216 0.0 6.4 0.00 0.00 0.00 35 1007.3
20260504201550 23 215 0.0 14.5 0.00 0.00 0.00 34 1007.0
20260504201511 23 215 0.0 14.5 0.00 0.00 0.00 34 1007.3
20260504201410 23 213 0.0 14.5 0.00 0.00 0.00 34 1007.3
20260504201310 23 201 0.0 14.5 0.00 0.00 0.00 34 1007.3
20260504201215 23 210 0.0 14.5 0.00 0.00 0.00 34 1007.3
20260504201209 23 220 0.0 14.5 0.00 0.00 0.00 34 1007.3
20260504201108 23 216 1.6 14.5 0.00 0.00 0.00 34 1007.3
20260504201020 23 273 1.6 19.3 0.00 0.00 0.00 34 1007.0
20260504201008 23 258 1.6 19.3 0.00 0.00 0.00 34 1007.3
20260504200921 23 200 1.6 19.3 0.00 0.00 0.00 34 1007.4
20260504200916 23 203 0.0 19.3 0.00 0.00 0.00 34 1007.3
20260504200715 23 226 1.6 19.3 0.00 0.00 0.00 34 1007.5
20260504200706 23 192 1.6 19.3 0.00 0.00 0.00 34 1007.5
20260504200606 23 220 1.6 19.3 0.00 0.00 0.00 34 1007.5
20260504200520 23 209 0.0 19.3 0.00 0.00 0.00 34 1007.2
20260504200506 23 235 1.6 19.3 0.00 0.00 0.00 34 1007.5
20260504200405 23 203 1.6 19.3 0.00 0.00 0.00 33 1007.4
20260504200304 23 201 1.6 19.3 0.00 0.00 0.00 33 1007.5
20260504200214 23 221 1.6 19.3 0.00 0.00 0.00 33 1007.5
20260504200203 23 184 1.6 19.3 0.00 0.00 0.00 33 1007.5
20260504200020 23 192 0.0 14.5 0.00 0.00 0.00 35 1007.2
20260504200002 23 244 1.6 14.5 0.00 0.00 0.00 35 1007.5
20260504195901 23 204 1.6 14.5 0.00 0.00 0.00 35 1007.5
20260504195800 23 49 0.0 14.5 0.00 0.00 0.00 34 1007.5
20260504195718 23 261 0.0 6.4 0.00 0.00 0.00 34 1007.6
20260504195714 23 225 0.0 14.5 0.00 0.00 0.00 35 1007.5
20260504195708 23 237 0.0 6.4 0.00 0.00 0.00 35 1007.5
20260504195520 23 235 0.0 6.4 0.00 0.00 0.00 34 1007.2
20260504195458 23 232 0.0 6.4 0.00 0.00 0.00 35 1007.5
20260504195358 23 227 0.0 6.4 0.00 0.00 0.00 34 1007.6
20260504195257 23 259 0.0 8.0 0.00 0.00 0.00 35 1007.6
20260504195212 22 200 1.6 12.9 0.00 0.00 0.00 35 1007.6
20260504195157 22 242 1.6 19.3 0.00 0.00 0.00 35 1007.6
20260504195057 22 286 1.6 19.3 0.00 0.00 0.00 35 1007.5
20260504195035 22 248 0.0 19.3 0.00 0.00 0.00 35 1007.2
20260504194956 22 202 1.6 19.3 0.00 0.00 0.00 35 1007.5
20260504194910 22 164 1.6 19.3 0.00 0.00 0.00 35 1007.5
20260504194905 22 221 1.6 19.3 0.00 0.00 0.00 36 1007.6
20260504194712 22 234 1.6 19.3 0.00 0.00 0.00 35 1007.6
20260504194655 22 228 1.6 19.3 0.00 0.00 0.00 35 1007.6
20260504194554 22 257 1.6 19.3 0.00 0.00 0.00 34 1007.5
20260504194535 22 180 0.0 19.3 0.00 0.00 0.00 36 1007.2
20260504194453 22 227 1.6 19.3 0.00 0.00 0.00 35 1007.5
20260504194406 22 173 1.6 19.3 0.00 0.00 0.00 34 1007.5
20260504194401 22 227 1.6 19.3 0.00 0.00 0.00 34 1007.6
20260504194212 22 159 0.0 19.3 0.00 0.00 0.00 35 1007.5
20260504194151 22 184 0.0 14.5 0.00 0.00 0.00 35 1007.5
20260504194051 22 192 0.0 14.5 0.00 0.00 0.00 34 1007.6
20260504194020 22 175 0.0 14.5 0.00 0.00 0.00 34 1007.3
20260504193950 22 200 0.0 14.5 0.00 0.00 0.00 34 1007.6
20260504193901 22 215 0.0 14.5 0.00 0.00 0.00 33 1007.6
20260504193856 22 208 0.0 14.5 0.00 0.00 0.00 33 1007.6
20260504193712 22 219 0.0 14.5 0.00 0.00 0.00 35 1007.7
20260504193646 22 190 0.0 8.0 0.00 0.00 0.00 35 1007.7
20260504193634 22 256 0.0 8.0 0.00 0.00 0.00 37 1007.6
20260504193522 22 92 1.6 14.5 0.00 0.00 0.00 35 1007.6
20260504193520 22 196 0.0 12.9 0.00 0.00 0.00 36 1007.3
20260504193516 22 196 0.0 12.9 0.00 0.00 0.00 36 1007.6
20260504193403 22 195 1.6 12.9 0.00 0.00 0.00 35 1007.6
20260504193246 22 223 1.6 12.9 0.00 0.00 0.00 34 1007.6
20260504193239 22 226 1.6 12.9 0.00 0.00 0.00 36 1007.6
20260504193021 22 211 0.0 14.5 0.00 0.00 0.00 34 1007.3
20260504193018 22 174 0.0 14.5 0.00 0.00 0.00 34 1007.6
20260504193012 22 177 1.6 14.5 0.00 0.00 0.00 34 1007.6
20260504192746 22 186 0.0 14.5 0.00 0.00 0.00 33 1007.6
20260504192539 22 209 0.0 14.5 0.00 0.00 0.00 33 1007.6
20260504192520 22 207 0.0 14.5 0.00 0.00 0.00 32 1007.3
20260504192439 23 149 0.0 14.5 0.00 0.00 0.00 32 1007.6
20260504192338 23 186 0.0 14.5 0.00 0.00 0.00 33 1007.7
20260504192238 23 229 0.0 14.5 0.00 0.00 0.00 32 1007.7
20260504192210 23 186 0.0 14.5 0.00 0.00 0.00 32 1007.7
20260504192137 23 202 0.0 14.5 0.00 0.00 0.00 32 1007.7
20260504192037 23 190 0.0 8.0 0.00 0.00 0.00 33 1007.7
20260504192020 23 198 0.0 8.0 0.00 0.00 0.00 33 1007.4
20260504191934 23 224 0.0 8.0 0.00 0.00 0.00 32 1007.7
20260504191833 23 205 0.0 8.0 0.00 0.00 0.00 32 1007.7
20260504191733 23 242 0.0 8.0 0.00 0.00 0.00 34 1007.8
20260504191709 23 263 0.0 8.0 0.00 0.00 0.00 34 1007.8
20260504191632 23 240 0.0 8.0 0.00 0.00 0.00 34 1007.8
20260504191532 23 275 0.0 8.0 0.00 0.00 0.00 34 1007.9
20260504191520 23 203 0.0 8.0 0.00 0.00 0.00 34 1007.6
20260504191429 23 205 0.0 8.0 0.00 0.00 0.00 33 1007.9
20260504191329 23 208 0.0 8.0 0.00 0.00 0.00 32 1007.9
20260504191228 23 234 0.0 6.4 0.00 0.00 0.00 34 1007.9
20260504191210 23 151 0.0 6.4 0.00 0.00 0.00 34 1007.9
20260504191141 23 238 0.0 6.4 0.00 0.00 0.00 34 1007.8
20260504191136 23 182 0.0 6.4 0.00 0.00 0.00 33 1007.9
20260504191020 23 234 0.0 3.2 0.00 0.00 0.00 34 1007.6
20260504190931 23 240 0.0 1.6 0.00 0.00 0.00 33 1007.8
20260504190927 23 260 0.0 1.6 0.00 0.00 0.00 32 1007.9
20260504190920 23 217 0.0 1.6 0.00 0.00 0.00 33 1007.9
20260504190916 23 239 0.0 1.6 0.00 0.00 0.00 33 1007.9
20260504190910 23 209 0.0 1.6 0.00 0.00 0.00 32 1007.8
20260504190754 23 301 0.0 1.6 0.00 0.00 0.00 33 1007.9
20260504190642 23 241 0.0 1.6 0.00 0.00 0.00 33 1007.9
20260504190535 23 204 0.0 1.6 0.00 0.00 0.00 33 1007.6
20260504190325 23 156 0.0 1.6 0.00 0.00 0.00 34 1007.9
20260504190316 23 212 0.0 0.0 0.00 0.00 0.00 35 1007.9
20260504190121 23 228 0.0 3.2 0.00 0.00 0.00 34 1008.0
20260504190020 23 231 0.0 3.2 0.00 0.00 0.00 34 1007.7
20260504185948 23 217 0.0 3.2 0.00 0.00 0.00 37 1008.0
20260504185943 23 192 0.0 3.2 0.00 0.00 0.00 34 1008.0
20260504185938 23 234 0.0 3.2 0.00 0.00 0.00 35 1008.0
20260504185708 23 197 0.0 3.2 0.00 0.00 0.00 34 1008.1
20260504185633 23 209 0.0 3.2 0.00 0.00 0.00 33 1008.1
20260504185628 23 223 0.0 3.2 0.00 0.00 0.00 34 1008.1
20260504185520 23 209 0.0 3.2 0.00 0.00 0.00 33 1007.8
20260504185418 23 188 0.0 3.2 0.00 0.00 0.00 34 1008.1
20260504185316 23 186 0.0 3.2 0.00 0.00 0.00 32 1008.1
20260504185235 22 247 0.0 3.2 0.00 0.00 0.00 36 1008.2
20260504185230 23 211 0.0 3.2 0.00 0.00 0.00 33 1008.1
20260504185223 23 227 0.0 3.2 0.00 0.00 0.00 33 1008.2
20260504185020 22 194 0.0 1.6 0.00 0.00 0.00 35 1007.9
20260504185016 22 194 0.0 4.8 0.00 0.00 0.00 37 1008.2
20260504184915 22 221 0.0 4.8 0.00 0.00 0.00 34 1008.2
20260504184814 22 279 0.0 6.4 0.00 0.00 0.00 33 1008.2
20260504184714 22 197 0.0 6.4 0.00 0.00 0.00 33 1008.2
20260504184706 22 232 0.0 6.4 0.00 0.00 0.00 33 1008.2
20260504184613 22 226 0.0 6.4 0.00 0.00 0.00 33 1008.2
20260504184520 22 277 0.0 20.9 0.00 0.00 0.00 34 1008.0
20260504184513 22 233 0.0 20.9 0.00 0.00 0.00 34 1008.3
20260504184411 22 236 1.6 20.9 0.00 0.00 0.00 37 1008.3
20260504184312 22 267 1.6 20.9 0.00 0.00 0.00 35 1008.3
20260504184251 22 183 1.6 20.9 0.00 0.00 0.00 33 1008.3
20260504184238 22 245 1.6 20.9 0.00 0.00 0.00 34 1008.2
20260504184020 22 252 0.0 20.9 0.00 0.00 0.00 32 1007.9
20260504184018 22 229 1.6 20.9 0.00 0.00 0.00 32 1008.3
20260504184013 22 237 1.6 20.9 0.00 0.00 0.00 32 1008.2
20260504184004 22 182 1.6 20.9 0.00 0.00 0.00 34 1008.3
20260504183845 22 229 1.6 20.9 0.00 0.00 0.00 32 1008.3
20260504183628 23 200 0.0 12.9 0.00 0.00 0.00 32 1008.4
20260504183622 23 173 0.0 20.9 0.00 0.00 0.00 32 1008.3
20260504183535 23 134 1.6 11.3 0.00 0.00 0.00 34 1008.0
20260504183345 23 178 0.0 9.7 0.00 0.00 0.00 34 1008.4
20260504183339 23 202 0.0 11.3 0.00 0.00 0.00 34 1008.4
20260504183226 23 255 0.0 11.3 0.00 0.00 0.00 33 1008.4
20260504183220 23 255 0.0 11.3 0.00 0.00 0.00 33 1008.4
20260504183020 23 190 1.6 9.7 0.00 0.00 0.00 33 1008.2
20260504182901 23 225 0.0 8.0 0.00 0.00 0.00 34 1008.5
20260504182814 23 194 0.0 8.0 0.00 0.00 0.00 33 1008.4
20260504182707 23 244 0.0 8.0 0.00 0.00 0.00 33 1008.4
20260504182701 23 243 0.0 8.0 0.00 0.00 0.00 33 1008.4
20260504182559 23 300 0.0 14.5 0.00 0.00 0.00 34 1008.4
20260504182520 23 237 0.0 14.5 0.00 0.00 0.00 34 1008.1
20260504182458 23 237 0.0 14.5 0.00 0.00 0.00 34 1008.4
20260504182438 22 239 0.0 14.5 0.00 0.00 0.00 35 1008.5
20260504182434 22 244 0.0 14.5 0.00 0.00 0.00 35 1008.5
20260504182428 22 253 0.0 14.5 0.00 0.00 0.00 33 1008.6
20260504182423 22 241 0.0 14.5 0.00 0.00 0.00 34 1008.4
20260504182159 22 240 0.0 14.5 0.00 0.00 0.00 33 1008.5
20260504182035 22 228 4.8 14.5 0.00 0.00 0.00 33 1008.2
20260504182028 22 243 0.0 14.5 0.00 0.00 0.00 33 1008.5
20260504181849 22 188 0.0 14.5 0.00 0.00 0.00 31 1008.6
20260504181809 23 178 0.0 14.5 0.00 0.00 0.00 33 1008.5
20260504181646 23 184 0.0 14.5 0.00 0.00 0.00 34 1008.5
20260504181559 23 178 0.0 11.3 0.00 0.00 0.00 35 1008.5
20260504181554 23 218 0.0 11.3 0.00 0.00 0.00 32 1008.6
20260504181520 23 202 0.0 11.3 0.00 0.00 0.00 32 1008.2
20260504181342 23 222 1.6 19.3 0.00 0.00 0.00 32 1008.5
20260504181241 23 264 1.6 19.3 0.00 0.00 0.00 32 1008.6
20260504181201 23 286 1.6 19.3 0.00 0.00 0.00 33 1008.6
20260504181140 23 212 1.6 19.3 0.00 0.00 0.00 34 1008.6
20260504181054 23 252 1.6 19.3 0.00 0.00 0.00 33 1008.7
20260504181049 23 194 1.6 19.3 0.00 0.00 0.00 33 1008.7
20260504181035 23 182 0.0 19.3 0.00 0.00 0.00 33 1008.4
20260504180928 23 263 0.0 19.3 0.00 0.00 0.00 33 1008.7
20260504180817 22 219 0.0 19.3 0.00 0.00 0.00 33 1008.6
20260504180812 22 242 0.0 3.2 0.00 0.00 0.00 34 1008.7
20260504180807 22 227 0.0 9.7 0.00 0.00 0.00 34 1008.7
20260504180803 22 229 0.0 9.7 0.00 0.00 0.00 33 1008.7
20260504180758 23 234 0.0 19.3 0.00 0.00 0.00 34 1008.7
20260504180750 22 240 0.0 19.3 0.00 0.00 0.00 33 1008.7
20260504180743 22 201 0.0 19.3 0.00 0.00 0.00 34 1008.7
20260504180519 22 217 0.0 19.3 0.00 0.00 0.00 34 1008.3
20260504180136 22 229 0.0 9.7 0.00 0.00 0.00 33 1008.7
20260504180035 22 292 0.0 9.7 0.00 0.00 0.00 33 1008.7
20260504180020 22 238 0.0 9.7 0.00 0.00 0.00 33 1008.5
20260504175933 22 199 0.0 9.7 0.00 0.00 0.00 34 1008.8
20260504175834 22 246 0.0 9.7 0.00 0.00 0.00 34 1008.8
20260504175733 22 267 0.0 9.7 0.00 0.00 0.00 34 1008.8
20260504175659 22 288 0.0 9.7 0.00 0.00 0.00 33 1008.9
20260504175632 22 259 0.0 9.7 0.00 0.00 0.00 33 1008.9
20260504175532 22 286 0.0 9.7 0.00 0.00 0.00 35 1008.9
20260504175520 22 237 0.0 9.7 0.00 0.00 0.00 35 1008.6
20260504175431 22 255 0.0 9.7 0.00 0.00 0.00 34 1008.9
20260504175332 22 200 1.6 9.7 0.00 0.00 0.00 36 1009.0
20260504175250 22 209 0.0 12.9 0.00 0.00 0.00 32 1009.0
20260504175245 22 221 1.6 12.9 0.00 0.00 0.00 34 1009.0
20260504175237 22 200 0.0 12.9 0.00 0.00 0.00 32 1009.0
20260504175050 22 212 4.8 12.9 0.00 0.00 0.00 33 1008.7
20260504175030 22 231 0.0 12.9 0.00 0.00 0.00 33 1009.0
20260504174929 22 200 0.0 12.9 0.00 0.00 0.00 33 1009.0
20260504174922 22 194 0.0 12.9 0.00 0.00 0.00 31 1008.9
20260504174827 22 166 0.0 12.9 0.00 0.00 0.00 32 1008.9
20260504174806 22 184 0.0 12.9 0.00 0.00 0.00 32 1009.0
20260504174624 22 198 0.0 12.9 0.00 0.00 0.00 31 1008.9
20260504174525 22 192 0.0 12.9 0.00 0.00 0.00 32 1009.0
20260504174520 22 208 0.0 12.9 0.00 0.00 0.00 32 1008.7
20260504174424 22 200 0.0 12.9 0.00 0.00 0.00 33 1009.0
20260504174324 22 200 1.6 32.2 0.00 0.00 0.00 34 1009.0
20260504174223 22 193 0.0 32.2 0.00 0.00 0.00 32 1009.1
20260504174158 22 190 1.6 32.2 0.00 0.00 0.00 32 1009.1
20260504174123 22 220 1.6 32.2 0.00 0.00 0.00 34 1009.1
20260504174022 22 206 1.6 32.2 0.00 0.00 0.00 34 1009.1
20260504174020 22 173 0.0 32.2 0.00 0.00 0.00 32 1008.8
20260504173922 22 208 1.6 32.2 0.00 0.00 0.00 32 1009.1
20260504173821 22 254 1.6 32.2 0.00 0.00 0.00 33 1009.1
20260504173722 22 197 1.6 32.2 0.00 0.00 0.00 32 1009.1
20260504173656 22 221 1.6 32.2 0.00 0.00 0.00 32 1009.2
20260504173622 22 203 1.6 32.2 0.00 0.00 0.00 32 1009.2
20260504173520 22 229 1.6 32.2 0.00 0.00 0.00 33 1009.1
20260504173420 22 238 1.6 32.2 0.00 0.00 0.00 34 1009.2
20260504173352 22 270 0.0 19.3 0.00 0.00 0.00 33 1009.2
20260504173346 22 254 0.0 19.3 0.00 0.00 0.00 35 1009.2
20260504173341 22 232 0.0 12.9 0.00 0.00 0.00 33 1009.1
20260504173225 22 253 0.0 19.3 0.00 0.00 0.00 33 1009.2
20260504173019 22 253 0.0 19.3 0.00 0.00 0.00 35 1009.0
20260504173017 22 242 0.0 19.3 0.00 0.00 0.00 35 1009.3
20260504172917 22 242 0.0 19.3 0.00 0.00 0.00 34 1009.3
20260504172815 22 214 0.0 19.3 0.00 0.00 0.00 34 1009.2
20260504172715 22 158 0.0 19.3 0.00 0.00 0.00 35 1009.2
20260504172655 22 200 0.0 19.3 0.00 0.00 0.00 35 1009.2
20260504172614 22 212 0.0 19.3 0.00 0.00 0.00 33 1009.3
20260504172534 22 173 0.0 19.3 0.00 0.00 0.00 32 1009.0
20260504172514 22 182 0.0 19.3 0.00 0.00 0.00 32 1009.3
20260504172413 22 241 0.0 19.3 0.00 0.00 0.00 33 1009.3
20260504172312 22 194 0.0 19.3 0.00 0.00 0.00 33 1009.3
20260504172212 22 206 0.0 9.7 0.00 0.00 0.00 35 1009.3
20260504172156 22 194 0.0 9.7 0.00 0.00 0.00 35 1009.3
20260504172111 22 151 0.0 1.6 0.00 0.00 0.00 34 1009.3
20260504172020 22 229 0.0 1.6 0.00 0.00 0.00 34 1009.0
20260504172010 22 229 0.0 1.6 0.00 0.00 0.00 34 1009.3
20260504171924 22 153 0.0 12.9 0.00 0.00 0.00 35 1009.3
20260504171918 22 219 0.0 1.6 0.00 0.00 0.00 37 1009.3
20260504171709 21 215 0.0 12.9 0.00 0.00 0.00 35 1009.3
20260504171655 21 189 0.0 12.9 0.00 0.00 0.00 35 1009.3
20260504171608 21 186 0.0 16.1 0.00 0.00 0.00 35 1009.4
20260504171519 21 196 0.0 14.5 0.00 0.00 0.00 36 1009.0
20260504171508 21 196 0.0 16.1 0.00 0.00 0.00 36 1009.3
20260504171419 21 167 0.0 16.1 0.00 0.00 0.00 33 1009.4
20260504171414 21 215 0.0 16.1 0.00 0.00 0.00 34 1009.3
20260504171204 22 194 0.0 16.1 0.00 0.00 0.00 33 1009.4
20260504171155 22 159 0.0 16.1 0.00 0.00 0.00 34 1009.4
20260504171105 21 173 0.0 16.1 0.00 0.00 0.00 35 1009.4
20260504171020 21 223 0.0 14.5 0.00 0.00 0.00 34 1009.1
20260504171018 21 288 1.6 16.1 0.00 0.00 0.00 35 1009.4
20260504171013 21 221 1.6 16.1 0.00 0.00 0.00 34 1009.4
20260504170803 21 222 1.6 16.1 0.00 0.00 0.00 36 1009.5
20260504170655 21 233 1.6 16.1 0.00 0.00 0.00 34 1009.5
20260504170629 21 196 0.0 14.5 0.00 0.00 0.00 34 1009.5
20260504170625 21 189 0.0 14.5 0.00 0.00 0.00 34 1009.5
20260504170619 21 217 0.0 14.5 0.00 0.00 0.00 33 1009.5
20260504170519 21 189 1.6 14.5 0.00 0.00 0.00 33 1009.2
20260504170316 21 194 0.0 14.5 0.00 0.00 0.00 33 1009.6
20260504170310 21 236 0.0 14.5 0.00 0.00 0.00 32 1009.5
20260504170154 21 216 0.0 14.5 0.00 0.00 0.00 33 1009.6
20260504160444 21 226 0.0 19.3 0.00 0.00 0.00 33 1010.2
20260504160440 21 248 0.0 19.3 0.00 0.00 0.00 32 1010.2
20260504160229 21 239 0.0 6.4 0.00 0.00 0.00 34 1010.2
20260504160143 21 273 0.0 6.4 0.00 0.00 0.00 34 1010.2
20260504160130 21 245 0.0 6.4 0.00 0.00 0.00 34 1010.2
20260504151107 20 306 0.0 11.3 0.00 0.00 0.00 39 1006.2
20260504151020 20 253 0.0 9.7 0.00 0.00 0.00 40 1006.0
20260504150921 20 270 0.0 11.3 0.00 0.00 0.00 40 1006.1
20260504150856 20 242 0.0 11.3 0.00 0.00 0.00 42 1006.1
20260504150824 20 235 0.0 11.3 0.00 0.00 0.00 38 1006.1
20260504150819 20 211 0.0 11.3 0.00 0.00 0.00 41 1006.1
20260504150809 20 229 0.0 11.3 0.00 0.00 0.00 40 1006.1
20260504150519 20 231 0.0 9.7 0.00 0.00 0.00 38 1005.9
20260504150507 20 248 0.0 11.3 0.00 0.00 0.00 41 1006.1
20260504150503 20 233 0.0 11.3 0.00 0.00 0.00 38 1006.1
20260504150255 20 182 0.0 11.3 0.00 0.00 0.00 39 1006.2
20260504150154 20 228 0.0 11.3 0.00 0.00 0.00 39 1006.2
20260504150134 20 235 0.0 11.3 0.00 0.00 0.00 39 1006.2
20260504150105 20 206 0.0 11.3 0.00 0.00 0.00 39 1006.2
20260504141324 17 169 0.0 12.9 0.00 0.00 0.00 49 1006.3
20260504141223 17 146 0.0 12.9 0.00 0.00 0.00 50 1006.3
20260504141142 17 239 0.0 9.7 0.00 0.00 0.00 53 1006.5
20260504141137 17 167 0.0 9.7 0.00 0.00 0.00 52 1006.4
20260504141131 17 178 0.0 9.7 0.00 0.00 0.00 52 1006.4
20260504141020 17 244 0.0 6.4 0.00 0.00 0.00 53 1006.3
20260504140921 17 204 0.0 9.7 0.00 0.00 0.00 53 1006.5
20260504140821 17 198 0.0 9.7 0.00 0.00 0.00 52 1006.5
20260504140721 17 157 0.0 9.7 0.00 0.00 0.00 52 1006.6
20260504140626 17 178 0.0 9.7 0.00 0.00 0.00 53 1006.6
20260504140620 17 173 0.0 9.7 0.00 0.00 0.00 53 1006.6
20260504140520 17 216 0.0 6.4 0.00 0.00 0.00 54 1006.4
20260504140420 17 190 0.0 6.4 0.00 0.00 0.00 53 1006.6
20260504140355 16 234 0.0 6.4 0.00 0.00 0.00 53 1006.5
20260504140349 16 231 0.0 6.4 0.00 0.00 0.00 54 1006.5
20260504140344 16 198 0.0 6.4 0.00 0.00 0.00 52 1006.6
20260504140116 16 234 0.0 6.4 0.00 0.00 0.00 53 1006.6
20260504130744 15 219 0.0 4.8 0.00 0.00 0.00 59 1008.2
20260504130728 15 242 0.0 4.8 0.00 0.00 0.00 59 1008.3
20260504130543 15 215 0.0 4.8 0.00 0.00 0.00 59 1008.2
20260504130520 15 235 0.0 4.8 0.00 0.00 0.00 59 1008.2
20260504130457 15 239 0.0 9.7 0.00 0.00 0.00 59 1008.3
20260504130452 15 199 0.0 9.7 0.00 0.00 0.00 60 1008.3
20260504130242 15 200 0.0 9.7 0.00 0.00 0.00 59 1008.4
20260504130141 15 279 0.0 9.7 0.00 0.00 0.00 58 1008.3
20260504130119 15 190 0.0 9.7 0.00 0.00 0.00 58 1008.3
20260504120136 13 215 0.0 1.6 0.00 0.00 0.00 63 1011.5
20260504110621 8 0 0.0 1.6 0.00 0.00 0.00 73 1012.2
20260504110520 8 360 0.0 1.6 0.00 0.00 0.00 74 1012.2
20260504110250 8 0 0.0 0.0 0.00 0.00 0.00 75 1012.1
20260504110109 8 0 0.0 0.0 0.00 0.00 0.00 75 1012.0
20260504100559 3 0 0.0 0.0 0.00 0.00 0.00 86 1011.8
20260504100520 3 360 0.0 0.0 0.00 0.00 0.00 86 1012.0
20260504100515 3 0 0.0 0.0 0.00 0.00 0.00 86 1011.8
20260504100415 3 0 0.0 0.0 0.00 0.00 0.00 87 1011.8
20260504100314 3 0 0.0 0.0 0.00 0.00 0.00 88 1011.9
20260504100214 3 0 0.0 0.0 0.00 0.00 0.00 88 1011.9
20260504100113 3 0 0.0 0.0 0.00 0.00 0.00 89 1011.9
20260504090137 2 227 0.0 0.0 0.00 0.00 0.00 89 1011.8
20260504081713 2 227 0.0 0.0 0.00 0.00 0.00 87 1011.9
20260504081613 2 227 0.0 0.0 0.00 0.00 0.00 87 1011.9
20260504081525 2 227 0.0 0.0 0.00 0.00 0.00 87 1011.9
20260504081521 2 227 0.0 0.0 0.00 0.00 0.00 87 1011.9
20260504081311 2 227 0.0 0.0 0.00 0.00 0.00 87 1011.9
20260504081210 2 227 0.0 0.0 0.00 0.00 0.00 87 1011.9
20260504081110 2 227 0.0 0.0 0.00 0.00 0.00 87 1011.9
20260504081042 2 227 0.0 0.0 0.00 0.00 0.00 87 1011.9
20260504081020 2 227 0.0 0.0 0.00 0.00 0.00 87 1012.1
20260504081009 2 227 0.0 0.0 0.00 0.00 0.00 87 1011.9
20260504080909 2 227 0.0 0.0 0.00 0.00 0.00 87 1011.9
20260504080817 2 227 0.0 0.0 0.00 0.00 0.00 87 1011.9
20260504080721 2 227 0.0 0.0 0.00 0.00 0.00 86 1011.9
20260504080717 2 227 0.0 0.0 0.00 0.00 0.00 86 1011.9
20260504080521 2 227 0.0 0.0 0.00 0.00 0.00 86 1012.0
20260504080517 2 227 0.0 0.0 0.00 0.00 0.00 86 1011.9
20260504080309 2 227 0.0 0.0 0.00 0.00 0.00 86 1011.9
20260504080302 2 227 0.0 0.0 0.00 0.00 0.00 86 1011.9
20260504080206 2 227 0.0 0.0 0.00 0.00 0.00 86 1011.9
20260504080148 2 227 0.0 0.0 0.00 0.00 0.00 86 1011.9
20260504070235 3 227 0.0 0.0 0.00 0.00 0.00 79 1011.9
20260504070134 3 227 0.0 0.0 0.00 0.00 0.00 79 1011.9
20260504060200 5 227 0.0 0.0 0.00 0.00 0.00 73 1011.8
20260504050640 7 227 0.0 0.0 0.00 0.00 0.00 63 1012.0
20260504050535 7 227 0.0 0.0 0.00 0.00 0.00 63 1012.0
20260504050514 7 227 0.0 0.0 0.00 0.00 0.00 63 1011.9
20260504050438 7 227 0.0 0.0 0.00 0.00 0.00 63 1011.9
20260504050339 7 227 0.0 0.0 0.00 0.00 0.00 62 1011.9
20260504050239 7 227 0.0 0.0 0.00 0.00 0.00 62 1011.9
20260504050139 7 227 0.0 0.0 0.00 0.00 0.00 61 1011.9
20260504050020 7 227 0.0 0.0 0.00 0.00 0.00 62 1012.0
20260504050013 7 227 0.0 0.0 0.00 0.00 0.00 62 1011.9
20260504045938 7 227 0.0 0.0 0.00 0.00 0.00 61 1011.9
20260504045838 7 227 0.0 0.0 0.00 0.00 0.00 61 1011.9
20260504045737 7 227 0.0 0.0 0.00 0.00 0.00 61 1011.9
20260504045634 7 227 0.0 0.0 0.00 0.00 0.00 61 1011.9
20260504045520 7 227 0.0 0.0 0.00 0.00 0.00 61 1012.0
20260504045513 7 227 0.0 0.0 0.00 0.00 0.00 61 1011.9
20260504045447 7 227 0.0 0.0 0.00 0.00 0.00 60 1011.9
20260504045443 7 227 0.0 0.0 0.00 0.00 0.00 61 1011.9
20260504045434 7 227 0.0 0.0 0.00 0.00 0.00 61 1011.9
20260504045320 7 227 0.0 0.0 0.00 0.00 0.00 60 1011.9
20260504045207 7 227 0.0 0.0 0.00 0.00 0.00 60 1011.9
20260504045158 7 227 0.0 0.0 0.00 0.00 0.00 60 1011.9
20260504045020 7 227 0.0 0.0 0.00 0.00 0.00 60 1012.0
20260504044733 8 227 0.0 0.0 0.00 0.00 0.00 60 1011.9
20260504044631 8 227 0.0 0.0 0.00 0.00 0.00 60 1011.8
20260504044531 8 227 0.0 0.0 0.00 0.00 0.00 60 1011.8
20260504044520 8 227 0.0 0.0 0.00 0.00 0.00 59 1011.9
20260504044510 8 227 0.0 0.0 0.00 0.00 0.00 59 1011.8
20260504044431 8 227 0.0 0.0 0.00 0.00 0.00 59 1011.8
20260504044330 8 227 0.0 0.0 0.00 0.00 0.00 59 1011.8
20260504044229 8 227 0.0 0.0 0.00 0.00 0.00 59 1011.8
20260504044128 8 227 0.0 0.0 0.00 0.00 0.00 59 1011.8
20260504044100 8 227 0.0 0.0 0.00 0.00 0.00 59 1011.8
20260504044056 8 227 0.0 0.0 0.00 0.00 0.00 58 1011.8
20260504044051 8 227 0.0 0.0 0.00 0.00 0.00 58 1011.8
20260504044043 8 227 0.0 0.0 0.00 0.00 0.00 59 1011.8
20260504044021 8 227 0.0 0.0 0.00 0.00 0.00 59 1011.9
20260504043724 8 227 0.0 0.0 0.00 0.00 0.00 57 1011.8
20260504043625 8 227 0.0 0.0 0.00 0.00 0.00 56 1011.8
20260504043525 8 227 0.0 0.0 0.00 0.00 0.00 57 1011.8
20260504043520 8 227 0.0 0.0 0.00 0.00 0.00 56 1011.9
20260504043506 8 227 0.0 0.0 0.00 0.00 0.00 56 1011.8
20260504043446 8 227 0.0 0.0 0.00 0.00 0.00 56 1011.8
20260504043333 8 227 0.0 0.0 0.00 0.00 0.00 56 1011.8
20260504043122 8 227 0.0 0.0 0.00 0.00 0.00 56 1011.8
20260504043020 8 227 0.0 0.0 0.00 0.00 0.00 55 1011.8
20260504043007 8 227 0.0 0.0 0.00 0.00 0.00 55 1011.7
20260504042948 8 227 0.0 0.0 0.00 0.00 0.00 56 1011.8
20260504042943 8 227 0.0 0.0 0.00 0.00 0.00 56 1011.8
20260504042939 8 227 0.0 0.0 0.00 0.00 0.00 56 1011.8
20260504042620 8 227 0.0 0.0 0.00 0.00 0.00 56 1011.8
20260504042550 8 227 0.0 0.0 0.00 0.00 0.00 55 1011.7
20260504042546 8 227 0.0 0.0 0.00 0.00 0.00 56 1011.7
20260504042540 8 227 0.0 0.0 0.00 0.00 0.00 56 1011.8
20260504042533 8 227 0.0 0.0 0.00 0.00 0.00 56 1011.7
20260504042520 8 227 0.0 0.0 0.00 0.00 0.00 56 1011.7
20260504042215 8 227 0.0 0.0 0.00 0.00 0.00 56 1011.7
20260504042114 8 227 0.0 0.0 0.00 0.00 0.00 55 1011.6
20260504042020 8 227 0.0 0.0 0.00 0.00 0.00 55 1011.7
20260504042005 8 227 0.0 0.0 0.00 0.00 0.00 55 1011.7
20260504041913 8 227 0.0 0.0 0.00 0.00 0.00 54 1011.7
20260504041813 8 227 0.0 0.0 0.00 0.00 0.00 54 1011.6
20260504041712 8 227 0.0 0.0 0.00 0.00 0.00 53 1011.6
20260504041612 8 227 0.0 0.0 0.00 0.00 0.00 53 1011.6
20260504041529 8 227 0.0 0.0 0.00 0.00 0.00 54 1011.6
20260504041520 8 227 0.0 0.0 0.00 0.00 0.00 53 1011.6
20260504041518 8 227 0.0 0.0 0.00 0.00 0.00 53 1011.6
20260504041310 8 227 0.0 0.0 0.00 0.00 0.00 53 1011.6
20260504041210 8 227 0.0 0.0 0.00 0.00 0.00 53 1011.5
20260504041109 9 227 0.0 0.0 0.00 0.00 0.00 53 1011.5
20260504041020 9 227 0.0 0.0 0.00 0.00 0.00 53 1011.5
20260504041004 9 227 0.0 0.0 0.00 0.00 0.00 53 1011.5
20260504040907 9 227 0.0 0.0 0.00 0.00 0.00 54 1011.5
20260504040807 9 227 0.0 0.0 0.00 0.00 0.00 54 1011.5
20260504040707 9 227 0.0 0.0 0.00 0.00 0.00 53 1011.5
20260504040605 9 227 0.0 0.0 0.00 0.00 0.00 53 1011.5
20260504040520 9 227 0.0 0.0 0.00 0.00 0.00 53 1011.5
20260504040506 9 227 0.0 0.0 0.00 0.00 0.00 53 1011.5
20260504040405 9 227 0.0 0.0 0.00 0.00 0.00 54 1011.6
20260504040304 9 227 0.0 0.0 0.00 0.00 0.00 53 1011.6
20260504040204 9 227 0.0 0.0 0.00 0.00 0.00 53 1011.5
20260504040103 9 227 0.0 0.0 0.00 0.00 0.00 53 1011.6
20260504040020 9 227 0.0 0.0 0.00 0.00 0.00 53 1011.6
20260504040007 9 227 0.0 0.0 0.00 0.00 0.00 53 1011.6
20260504040001 9 227 0.0 0.0 0.00 0.00 0.00 53 1011.6
20260504035902 9 227 0.0 0.0 0.00 0.00 0.00 53 1011.5
20260504035818 9 227 0.0 0.0 0.00 0.00 0.00 53 1011.6
20260504035814 9 227 0.0 0.0 0.00 0.00 0.00 54 1011.4
20260504035810 9 227 0.0 0.0 0.00 0.00 0.00 53 1011.6
20260504035614 9 227 0.0 0.0 0.00 0.00 0.00 53 1011.5
20260504035520 9 227 0.0 0.0 0.00 0.00 0.00 54 1011.4
20260504035459 9 227 0.0 0.0 0.00 0.00 0.00 54 1011.4
20260504035359 9 227 0.0 0.0 0.00 0.00 0.00 54 1011.4
20260504035258 9 227 0.0 0.0 0.00 0.00 0.00 54 1011.3
20260504035157 9 227 0.0 0.0 0.00 0.00 0.00 55 1011.4
20260504035057 9 227 0.0 0.0 0.00 0.00 0.00 54 1011.4
20260504035020 9 227 0.0 0.0 0.00 0.00 0.00 54 1011.4
20260504034956 9 227 0.0 0.0 0.00 0.00 0.00 54 1011.4
20260504034856 9 227 0.0 0.0 0.00 0.00 0.00 54 1011.4
20260504034755 9 227 0.0 0.0 0.00 0.00 0.00 54 1011.4
20260504034654 9 227 0.0 0.0 0.00 0.00 0.00 53 1011.4
20260504034554 9 227 0.0 0.0 0.00 0.00 0.00 53 1011.4
20260504034520 9 227 0.0 0.0 0.00 0.00 0.00 53 1011.4
20260504034453 9 227 0.0 0.0 0.00 0.00 0.00 53 1011.4
20260504034353 9 227 0.0 0.0 0.00 0.00 0.00 53 1011.4
20260504034252 9 227 0.0 0.0 0.00 0.00 0.00 53 1011.4
20260504034151 9 227 0.0 0.0 0.00 0.00 0.00 53 1011.4
20260504034051 9 227 0.0 0.0 0.00 0.00 0.00 53 1011.3
20260504034020 9 227 0.0 0.0 0.00 0.00 0.00 53 1011.3
20260504033950 9 227 0.0 0.0 0.00 0.00 0.00 53 1011.3
20260504033849 9 227 0.0 0.0 0.00 0.00 0.00 53 1011.3
20260504033821 9 227 0.0 0.0 0.00 0.00 0.00 54 1011.3
20260504033750 9 227 0.0 0.0 0.00 0.00 0.00 53 1011.4
20260504033718 9 227 0.0 0.0 0.00 0.00 0.00 54 1011.3
20260504033712 9 227 0.0 0.0 0.00 0.00 0.00 53 1011.3
20260504033703 9 227 0.0 0.0 0.00 0.00 0.00 53 1011.3
20260504033520 9 227 0.0 0.0 0.00 0.00 0.00 54 1011.3
20260504033348 9 227 0.0 0.0 0.00 0.00 0.00 54 1011.3
20260504033248 9 227 0.0 0.0 0.00 0.00 0.00 55 1011.3
20260504033225 9 227 0.0 0.0 0.00 0.00 0.00 55 1011.3
20260504033148 9 227 0.0 0.0 0.00 0.00 0.00 55 1011.3
20260504033107 9 227 0.0 0.0 0.00 0.00 0.00 55 1011.3
20260504033020 9 227 0.0 0.0 0.00 0.00 0.00 55 1011.3
20260504032947 9 227 0.0 0.0 0.00 0.00 0.00 55 1011.3
20260504032845 9 227 0.0 0.0 0.00 0.00 0.00 55 1011.3
20260504032744 9 227 0.0 0.0 0.00 0.00 0.00 54 1011.3
20260504032644 9 227 0.0 0.0 0.00 0.00 0.00 54 1011.3
20260504032543 9 227 0.0 0.0 0.00 0.00 0.00 54 1011.3
20260504032520 9 227 0.0 0.0 0.00 0.00 0.00 54 1011.3
20260504032443 9 227 0.0 0.0 0.00 0.00 0.00 54 1011.3
20260504032343 9 227 0.0 0.0 0.00 0.00 0.00 54 1011.3
20260504032242 9 227 0.0 0.0 0.00 0.00 0.00 55 1011.3
20260504032142 9 227 0.0 0.0 0.00 0.00 0.00 55 1011.3
20260504032056 9 227 0.0 0.0 0.00 0.00 0.00 55 1011.3
20260504032046 9 227 0.0 0.0 0.00 0.00 0.00 56 1011.3
20260504032020 9 227 0.0 0.0 0.00 0.00 0.00 55 1011.3
20260504031841 9 227 0.0 0.0 0.00 0.00 0.00 57 1011.2
20260504031818 9 227 0.0 0.0 0.00 0.00 0.00 56 1011.3
20260504031739 9 227 0.0 0.0 0.00 0.00 0.00 57 1011.3
20260504031715 9 227 0.0 0.0 0.00 0.00 0.00 56 1011.3
20260504031706 9 227 0.0 0.0 0.00 0.00 0.00 56 1011.3
20260504031535 9 227 0.0 0.0 0.00 0.00 0.00 56 1011.3
20260504031447 9 227 0.0 0.0 0.00 0.00 0.00 56 1011.3
20260504031251 9 227 0.0 0.0 0.00 0.00 0.00 55 1011.2
20260504031246 9 227 0.0 0.0 0.00 0.00 0.00 55 1011.3
20260504031037 9 227 0.0 0.0 0.00 0.00 0.00 54 1011.3
20260504031020 9 227 0.0 0.0 0.00 0.00 0.00 54 1011.2
20260504030955 9 227 0.0 0.0 0.00 0.00 0.00 54 1011.2
20260504030949 9 227 0.0 0.0 0.00 0.00 0.00 54 1011.2
20260504030945 9 227 0.0 0.0 0.00 0.00 0.00 53 1011.2
20260504030734 9 227 0.0 0.0 0.00 0.00 0.00 54 1011.2
20260504030634 9 227 0.0 0.0 0.00 0.00 0.00 54 1011.2
20260504030535 9 227 0.0 0.0 0.00 0.00 0.00 54 1011.2
20260504030520 9 227 0.0 0.0 0.00 0.00 0.00 54 1011.1
20260504030433 9 227 0.0 0.0 0.00 0.00 0.00 54 1011.1
20260504030334 9 227 0.0 0.0 0.00 0.00 0.00 54 1011.2
20260504030234 9 227 0.0 0.0 0.00 0.00 0.00 54 1011.1
20260504030216 8 227 0.0 0.0 0.00 0.00 0.00 54 1011.1
20260504030132 9 227 0.0 0.0 0.00 0.00 0.00 54 1011.1
20260504030059 8 227 0.0 0.0 0.00 0.00 0.00 54 1011.2
20260504030020 8 227 0.0 0.0 0.00 0.00 0.00 54 1011.1
20260504025931 8 227 0.0 0.0 0.00 0.00 0.00 54 1011.1
20260504025831 8 227 0.0 0.0 0.00 0.00 0.00 55 1011.1
20260504025729 8 227 0.0 0.0 0.00 0.00 0.00 54 1011.1
20260504025659 8 227 0.0 0.0 0.00 0.00 0.00 55 1011.1
20260504025655 8 227 0.0 0.0 0.00 0.00 0.00 55 1011.1
20260504025649 8 227 0.0 0.0 0.00 0.00 0.00 54 1011.1
20260504025532 8 227 0.0 0.0 0.00 0.00 0.00 55 1011.1
20260504025520 8 227 0.0 0.0 0.00 0.00 0.00 55 1011.1
20260504025325 8 227 0.0 0.0 0.00 0.00 0.00 55 1011.2
20260504025229 8 227 0.0 0.0 0.00 0.00 0.00 56 1011.1
20260504025225 8 227 0.0 0.0 0.00 0.00 0.00 56 1011.1
20260504025212 8 227 0.0 0.0 0.00 0.00 0.00 56 1011.2
20260504025207 8 227 0.0 0.0 0.00 0.00 0.00 56 1011.2
20260504025020 8 227 0.0 0.0 0.00 0.00 0.00 56 1011.1
20260504024923 8 227 0.0 0.0 0.00 0.00 0.00 56 1011.1
20260504024824 8 227 0.0 0.0 0.00 0.00 0.00 58 1011.2
20260504024724 8 227 0.0 0.0 0.00 0.00 0.00 58 1011.2
20260504024622 8 227 0.0 0.0 0.00 0.00 0.00 57 1011.2
20260504024535 8 227 0.0 0.0 0.00 0.00 0.00 58 1011.2
20260504024522 8 227 0.0 0.0 0.00 0.00 0.00 58 1011.2
20260504024421 8 227 0.0 0.0 0.00 0.00 0.00 57 1011.2
20260504024319 8 227 0.0 0.0 0.00 0.00 0.00 58 1011.2
20260504024220 8 227 0.0 0.0 0.00 0.00 0.00 57 1011.2
20260504024120 8 227 0.0 0.0 0.00 0.00 0.00 57 1011.2
20260504024020 8 227 0.0 0.0 0.00 0.00 0.00 58 1011.3
20260504023919 8 227 0.0 0.0 0.00 0.00 0.00 58 1011.3
20260504023817 8 227 0.0 0.0 0.00 0.00 0.00 59 1011.2
20260504023717 8 227 0.0 0.0 0.00 0.00 0.00 59 1011.2
20260504023617 8 227 0.0 0.0 0.00 0.00 0.00 59 1011.2
20260504023520 8 227 0.0 0.0 0.00 0.00 0.00 60 1011.3
20260504023516 8 227 0.0 0.0 0.00 0.00 0.00 60 1011.2
20260504023416 8 227 0.0 0.0 0.00 0.00 0.00 60 1011.2
20260504023315 8 227 0.0 0.0 0.00 0.00 0.00 61 1011.2
20260504023215 8 227 0.0 0.0 0.00 0.00 0.00 63 1011.2
20260504023115 8 227 0.0 0.0 0.00 0.00 0.00 63 1011.2
20260504023020 8 227 0.0 0.0 0.00 0.00 0.00 63 1011.2
20260504023015 8 227 0.0 0.0 0.00 0.00 0.00 63 1011.2
20260504022939 8 227 0.0 0.0 0.00 0.00 0.00 62 1011.2
20260504022935 8 227 0.0 0.0 0.00 0.00 0.00 62 1011.2
20260504022930 8 227 0.0 0.0 0.00 0.00 0.00 63 1011.2
20260504022613 8 227 0.0 0.0 0.00 0.00 0.00 62 1011.2
20260504022520 8 227 0.0 0.0 0.00 0.00 0.00 62 1011.2
20260504022512 8 227 0.0 0.0 0.00 0.00 0.00 62 1011.2
20260504022444 8 227 0.0 0.0 0.00 0.00 0.00 62 1011.2
20260504022412 8 227 0.0 0.0 0.00 0.00 0.00 62 1011.2
20260504022325 8 227 0.0 0.0 0.00 0.00 0.00 62 1011.2
20260504022320 8 227 0.0 0.0 0.00 0.00 0.00 62 1011.2
20260504022109 8 227 0.0 0.0 0.00 0.00 0.00 62 1011.2
20260504022020 8 227 0.0 0.0 0.00 0.00 0.00 61 1011.1
20260504022009 8 227 0.0 0.0 0.00 0.00 0.00 61 1011.1
20260504021944 8 227 0.0 0.0 0.00 0.00 0.00 61 1011.1
20260504021909 8 227 0.0 0.0 0.00 0.00 0.00 60 1011.1
20260504021808 8 227 0.0 0.0 0.00 0.00 0.00 61 1011.2
20260504021708 8 227 0.0 0.0 0.00 0.00 0.00 60 1011.2
20260504021640 8 227 0.0 0.0 0.00 0.00 0.00 60 1011.3
20260504021636 8 227 0.0 0.0 0.00 0.00 0.00 58 1011.2
20260504021630 8 227 0.0 0.0 0.00 0.00 0.00 61 1011.2
20260504021520 8 227 0.0 0.0 0.00 0.00 0.00 61 1011.3
20260504021513 8 227 0.0 0.0 0.00 0.00 0.00 60 1011.3
20260504021318 8 227 0.0 0.0 0.00 0.00 0.00 57 1011.2
20260504021205 9 227 0.0 0.0 0.00 0.00 0.00 56 1011.2
20260504021104 9 227 0.0 0.0 0.00 0.00 0.00 57 1011.3
20260504021052 9 227 0.0 0.0 0.00 0.00 0.00 57 1011.3
20260504021020 9 227 0.0 0.0 0.00 0.00 0.00 57 1011.3
20260504020903 9 227 0.0 0.0 0.00 0.00 0.00 55 1011.2
20260504020802 9 227 0.0 0.0 0.00 0.00 0.00 54 1011.2
20260504020701 9 227 0.0 0.0 0.00 0.00 0.00 54 1011.2
20260504020601 9 227 0.0 0.0 0.00 0.00 0.00 54 1011.2
20260504020520 9 227 0.0 0.0 0.00 0.00 0.00 54 1011.1
20260504020502 8 227 0.0 0.0 0.00 0.00 0.00 54 1011.1
20260504020444 9 227 0.0 0.0 0.00 0.00 0.00 54 1011.1
20260504020400 9 227 0.0 0.0 0.00 0.00 0.00 54 1011.1
20260504020300 9 227 0.0 0.0 0.00 0.00 0.00 54 1011.1
20260504020211 9 227 0.0 0.0 0.00 0.00 0.00 57 1011.0
20260504020206 9 227 0.0 0.0 0.00 0.00 0.00 55 1011.1
20260504020020 9 227 0.0 0.0 0.00 0.00 0.00 57 1011.0
20260504020015 9 227 0.0 0.0 0.00 0.00 0.00 56 1011.0
20260504020009 9 227 0.0 0.0 0.00 0.00 0.00 57 1011.0
20260504020003 9 227 0.0 0.0 0.00 0.00 0.00 56 1011.0
20260504015755 9 227 0.0 0.0 0.00 0.00 0.00 55 1011.0
20260504015655 9 227 0.0 0.0 0.00 0.00 0.00 55 1011.0
20260504015555 9 227 0.0 0.0 0.00 0.00 0.00 55 1011.0
20260504015535 9 227 0.0 0.0 0.00 0.00 0.00 55 1011.0
20260504015443 9 227 0.0 0.0 0.00 0.00 0.00 55 1011.0
20260504015353 9 227 0.0 0.0 0.00 0.00 0.00 55 1011.0
20260504015307 9 227 0.0 0.0 0.00 0.00 0.00 56 1011.0
20260504015304 9 227 0.0 0.0 0.00 0.00 0.00 56 1011.0
20260504015052 9 227 0.0 0.0 0.00 0.00 0.00 56 1011.0
20260504015020 9 227 0.0 0.0 0.00 0.00 0.00 56 1011.0
20260504014942 9 227 0.0 0.0 0.00 0.00 0.00 56 1011.0
20260504014852 9 227 0.0 0.0 0.00 0.00 0.00 56 1011.0
20260504014751 9 227 0.0 0.0 0.00 0.00 0.00 57 1011.0
20260504014650 9 227 0.0 0.0 0.00 0.00 0.00 57 1011.0
20260504014550 9 227 0.0 0.0 0.00 0.00 0.00 57 1011.0
20260504014520 9 227 0.0 0.0 0.00 0.00 0.00 57 1011.0
20260504014443 9 227 0.0 0.0 0.00 0.00 0.00 57 1011.0
20260504014349 9 227 0.0 0.0 0.00 0.00 0.00 57 1011.0
20260504014250 9 227 0.0 0.0 0.00 0.00 0.00 58 1011.0
20260504014149 9 227 0.0 0.0 0.00 0.00 0.00 57 1011.0
20260504014049 9 227 0.0 0.0 0.00 0.00 0.00 58 1011.0
20260504014035 9 227 0.0 0.0 0.00 0.00 0.00 58 1010.9
20260504013941 9 227 0.0 0.0 0.00 0.00 0.00 59 1010.9
20260504013848 9 227 0.0 0.0 0.00 0.00 0.00 58 1011.0
20260504013748 9 227 0.0 0.0 0.00 0.00 0.00 58 1011.0
20260504013648 10 227 0.0 0.0 0.00 0.00 0.00 58 1010.9
20260504013547 10 227 0.0 0.0 0.00 0.00 0.00 57 1010.9
20260504013520 10 227 0.0 0.0 0.00 0.00 0.00 57 1010.9
20260504013440 10 227 0.0 0.0 0.00 0.00 0.00 57 1010.9
20260504013346 10 227 0.0 0.0 0.00 0.00 0.00 56 1010.9
20260504013246 10 227 0.0 0.0 0.00 0.00 0.00 56 1010.9
20260504013146 10 227 0.0 0.0 0.00 0.00 0.00 56 1010.9
20260504013059 10 227 0.0 0.0 0.00 0.00 0.00 55 1010.9
20260504013054 10 227 0.0 0.0 0.00 0.00 0.00 55 1010.9
20260504013020 10 227 0.0 0.0 0.00 0.00 0.00 56 1010.9
20260504012937 10 227 0.0 0.0 0.00 0.00 0.00 55 1010.9
20260504012845 10 227 0.0 0.0 0.00 0.00 0.00 55 1010.9
20260504012758 10 227 0.0 0.0 0.00 0.00 0.00 55 1010.9
20260504012753 10 227 0.0 0.0 0.00 0.00 0.00 55 1010.9
20260504012542 10 227 0.0 0.0 0.00 0.00 0.00 54 1010.9
20260504012520 10 227 0.0 0.0 0.00 0.00 0.00 54 1010.8
20260504012435 10 227 0.0 0.0 0.00 0.00 0.00 53 1010.8
20260504012341 10 227 0.0 0.0 0.00 0.00 0.00 52 1010.8
20260504012241 10 227 0.0 0.0 0.00 0.00 0.00 51 1010.8
20260504012138 10 227 0.0 0.0 0.00 0.00 0.00 51 1010.8
20260504012037 10 227 0.0 0.0 0.00 0.00 0.00 52 1010.8
20260504012020 10 227 0.0 0.0 0.00 0.00 0.00 53 1010.8
20260504011957 10 227 0.0 0.0 0.00 0.00 0.00 53 1010.8
20260504011948 10 227 0.0 0.0 0.00 0.00 0.00 53 1010.8
20260504011736 10 227 0.0 0.0 0.00 0.00 0.00 52 1010.8
20260504011649 11 227 0.0 0.0 0.00 0.00 0.00 52 1010.8
20260504011644 11 227 0.0 0.0 0.00 0.00 0.00 53 1010.7
20260504011520 11 227 0.0 0.0 0.00 0.00 0.00 52 1010.7
20260504011434 11 227 0.0 0.0 0.00 0.00 0.00 52 1010.7
20260504011334 11 227 0.0 0.0 0.00 0.00 0.00 51 1010.7
20260504011234 11 227 0.0 0.0 0.00 0.00 0.00 50 1010.7
20260504011133 11 227 0.0 0.0 0.00 0.00 0.00 50 1010.7
20260504011032 11 227 0.0 0.0 0.00 0.00 0.00 50 1010.7
20260504011020 11 227 0.0 0.0 0.00 0.00 0.00 49 1010.7
20260504010931 11 227 0.0 0.0 0.00 0.00 0.00 49 1010.7
20260504010831 11 0 0.0 0.0 0.00 0.00 0.00 48 1010.7
20260504010731 11 0 0.0 0.0 0.00 0.00 0.00 47 1010.6
20260504010630 11 0 0.0 0.0 0.00 0.00 0.00 47 1010.6
20260504010530 11 0 0.0 0.0 0.00 0.00 0.00 47 1010.6
20260504010520 11 360 0.0 0.0 0.00 0.00 0.00 47 1010.6
20260504010449 11 0 0.0 0.0 0.00 0.00 0.00 46 1010.6
20260504010438 11 0 0.0 0.0 0.00 0.00 0.00 46 1010.6
20260504010230 11 0 0.0 0.0 0.00 0.00 0.00 45 1010.6
20260504010132 11 0 0.0 0.0 0.00 0.00 0.00 45 1010.6
20260504010118 11 0 0.0 0.0 0.00 0.00 0.00 45 1010.6
20260504010111 11 0 0.0 0.0 0.00 0.00 0.00 45 1010.6
20260504010020 11 360 0.0 0.0 0.00 0.00 0.00 45 1010.6
20260504005849 11 0 0.0 0.0 0.00 0.00 0.00 45 1010.7
20260504005736 11 0 0.0 0.0 0.00 0.00 0.00 44 1010.7
20260504005541 11 0 0.0 0.0 0.00 0.00 0.00 45 1010.6
20260504005520 11 360 0.0 0.0 0.00 0.00 0.00 45 1010.5
20260504005426 11 0 0.0 0.0 0.00 0.00 0.00 44 1010.6
20260504005325 11 0 0.0 0.0 0.00 0.00 0.00 44 1010.6
20260504005224 11 0 0.0 0.0 0.00 0.00 0.00 43 1010.6
20260504005125 11 0 0.0 0.0 0.00 0.00 0.00 44 1010.6
20260504005024 11 0 0.0 0.0 0.00 0.00 0.00 43 1010.5
20260504005021 12 360 0.0 0.0 0.00 0.00 0.00 43 1010.4
20260504004924 12 0 0.0 0.0 0.00 0.00 0.00 43 1010.5
20260504004848 12 0 0.0 0.0 0.00 0.00 0.00 43 1010.5
20260504004844 12 0 0.0 0.0 0.00 0.00 0.00 43 1010.5
20260504004839 12 0 0.0 0.0 0.00 0.00 0.00 43 1010.5
20260504004535 12 0 0.0 0.0 0.00 0.00 0.00 43 1010.5
20260504004527 12 0 0.0 0.0 0.00 0.00 0.00 42 1010.5
20260504004520 12 360 0.0 0.0 0.00 0.00 0.00 43 1010.4
20260504004319 12 0 0.0 0.0 0.00 0.00 0.00 42 1010.5
20260504004219 12 0 0.0 0.0 0.00 0.00 0.00 42 1010.5
20260504004118 12 0 0.0 0.0 0.00 0.00 0.00 42 1010.5
20260504004021 12 360 0.0 0.0 0.00 0.00 0.00 42 1010.4
20260504004018 12 0 0.0 0.0 0.00 0.00 0.00 42 1010.4
20260504003918 12 0 0.0 0.0 0.00 0.00 0.00 42 1010.5
20260504003844 12 0 0.0 0.0 0.00 0.00 0.00 42 1010.4
20260504003840 12 0 0.0 0.0 0.00 0.00 0.00 42 1010.4
20260504003835 12 0 0.0 0.0 0.00 0.00 0.00 42 1010.4
20260504003528 12 0 0.0 0.0 0.00 0.00 0.00 42 1010.4
20260504003520 12 360 0.0 0.0 0.00 0.00 0.00 42 1010.3
20260504003312 12 0 0.0 0.0 0.00 0.00 0.00 41 1010.3
20260504003212 12 0 0.0 0.0 0.00 0.00 0.00 41 1010.3
20260504003111 12 0 0.0 0.0 0.00 0.00 0.00 41 1010.3
20260504003020 12 360 0.0 0.0 0.00 0.00 0.00 40 1010.2
20260504003011 12 0 0.0 0.0 0.00 0.00 0.00 40 1010.3
20260504002910 12 0 0.0 0.0 0.00 0.00 0.00 40 1010.3
20260504002809 12 0 0.0 0.0 0.00 0.00 0.00 40 1010.2
20260504002709 12 0 0.0 0.0 0.00 0.00 0.00 40 1010.2
20260504002649 13 0 0.0 0.0 0.00 0.00 0.00 40 1010.2
20260504002606 13 0 0.0 0.0 0.00 0.00 0.00 40 1010.3
20260504002534 13 0 0.0 0.0 0.00 0.00 0.00 40 1010.2
20260504002521 13 360 0.0 0.0 0.00 0.00 0.00 40 1010.1
20260504002416 13 0 0.0 0.0 0.00 0.00 0.00 39 1010.2
20260504002411 13 0 0.0 0.0 0.00 0.00 0.00 40 1010.2
20260504002203 13 0 0.0 0.0 0.00 0.00 0.00 39 1010.2
20260504002102 13 0 0.0 0.0 0.00 0.00 0.00 39 1010.2
20260504002020 13 360 0.0 0.0 0.00 0.00 0.00 39 1010.1
20260504002003 13 0 0.0 0.0 0.00 0.00 0.00 39 1010.2
20260504001925 13 0 0.0 0.0 0.00 0.00 0.00 39 1010.2
20260504001902 13 0 0.0 0.0 0.00 0.00 0.00 39 1010.2
20260504001801 13 0 0.0 0.0 0.00 0.00 0.00 39 1010.2
20260504001702 13 0 0.0 0.0 0.00 0.00 0.00 39 1010.2
20260504001602 13 0 0.0 0.0 0.00 0.00 0.00 39 1010.2
20260504001520 13 360 0.0 0.0 0.00 0.00 0.00 39 1010.1
20260504001502 13 0 0.0 0.0 0.00 0.00 0.00 39 1010.2
20260504001424 13 0 0.0 0.0 0.00 0.00 0.00 39 1010.2
20260504001400 13 0 0.0 0.0 0.00 0.00 0.00 39 1010.1
20260504001300 13 0 0.0 0.0 0.00 0.00 0.00 38 1010.1
20260504001200 13 0 0.0 0.0 0.00 0.00 0.00 38 1010.1
20260504001059 13 0 0.0 0.0 0.00 0.00 0.00 38 1010.1
20260504001020 13 360 0.0 0.0 0.00 0.00 0.00 38 1010.0
20260504000959 13 0 0.0 0.0 0.00 0.00 0.00 38 1010.1
20260504000923 13 0 0.0 0.0 0.00 0.00 0.00 38 1010.1
20260504000858 13 0 0.0 0.0 0.00 0.00 0.00 38 1010.1
20260504000758 13 0 0.0 0.0 0.00 0.00 0.00 38 1010.0
20260504000657 13 0 0.0 0.0 0.00 0.00 0.00 37 1010.1
20260504000556 13 0 0.0 0.0 0.00 0.00 0.00 38 1010.0
20260504000520 13 360 0.0 0.0 0.00 0.00 0.00 38 1009.9
20260504000456 13 0 0.0 0.0 0.00 0.00 0.00 38 1010.0
20260504000423 13 0 0.0 0.0 0.00 0.00 0.00 38 1010.0
20260504000417 13 0 0.0 0.0 0.00 0.00 0.00 38 1010.0
20260504000303 13 0 0.0 0.0 0.00 0.00 0.00 38 1010.0
20260504000108 13 0 0.0 0.0 0.00 0.00 0.00 38 1010.0
20260504000103 13 0 0.0 0.0 0.00 0.00 0.00 38 1010.0
20260504000020 13 360 0.0 0.0 0.00 0.00 0.00 38 1009.9
20260503235922 13 0 0.0 0.0 0.00 0.00 0.00 38 1010.0
20260503235914 13 0 0.0 0.0 0.00 0.00 0.00 38 1010.0
20260503235800 13 0 0.0 0.0 0.00 0.00 0.00 38 1009.9
20260503235551 13 0 0.0 0.0 0.00 0.00 0.00 37 1009.9
20260503235520 13 360 0.0 0.0 0.00 0.00 0.00 37 1009.8
20260503235509 13 0 0.0 1.6 0.00 0.00 0.00 37 1009.9
20260503235457 13 0 0.0 1.6 0.00 0.00 0.00 37 1009.9
20260503235249 13 0 0.0 1.6 0.00 0.00 0.00 38 1009.9
20260503235149 14 0 0.0 1.6 0.00 0.00 0.00 37 1009.8
20260503235048 14 0 0.0 1.6 0.00 0.00 0.00 38 1009.8
20260503235020 14 360 0.0 0.0 0.00 0.00 0.00 38 1009.7
20260503235006 14 0 0.0 1.6 0.00 0.00 0.00 37 1009.8
20260503234954 14 0 0.0 1.6 0.00 0.00 0.00 38 1009.8
20260503234747 14 0 0.0 1.6 0.00 0.00 0.00 37 1009.8
20260503234646 14 0 0.0 1.6 0.00 0.00 0.00 37 1009.8
20260503234559 14 0 0.0 0.0 0.00 0.00 0.00 36 1009.8
20260503234555 14 0 0.0 1.6 0.00 0.00 0.00 37 1009.8
20260503234520 14 360 0.0 0.0 0.00 0.00 0.00 37 1009.7
20260503234416 14 0 0.0 0.0 0.00 0.00 0.00 36 1009.8
20260503234358 14 0 0.0 0.0 0.00 0.00 0.00 36 1009.7
20260503234354 14 0 0.0 0.0 0.00 0.00 0.00 37 1009.8
20260503234201 14 0 0.0 3.2 0.00 0.00 0.00 36 1009.8
20260503234157 14 0 0.0 3.2 0.00 0.00 0.00 37 1009.7
20260503234153 14 0 0.0 0.0 0.00 0.00 0.00 36 1009.7
20260503234023 14 0 0.0 3.2 0.00 0.00 0.00 36 1009.7
20260503234020 14 360 0.0 3.2 0.00 0.00 0.00 36 1009.6
20260503233842 14 0 0.0 3.2 0.00 0.00 0.00 37 1009.8
20260503233742 14 0 0.0 3.2 0.00 0.00 0.00 36 1009.7
20260503233642 14 0 0.0 3.2 0.00 0.00 0.00 36 1009.7
20260503233542 14 0 0.0 3.2 0.00 0.00 0.00 35 1009.7
20260503233520 15 360 0.0 3.2 0.00 0.00 0.00 36 1009.6
20260503233414 14 0 0.0 3.2 0.00 0.00 0.00 36 1009.7
20260503233408 15 0 0.0 3.2 0.00 0.00 0.00 36 1009.8
20260503233402 15 0 0.0 4.8 0.00 0.00 0.00 36 1009.8
20260503233358 14 0 0.0 3.2 0.00 0.00 0.00 36 1009.7
20260503233039 15 0 0.0 6.4 0.00 0.00 0.00 36 1009.8
20260503233035 15 360 0.0 6.4 0.00 0.00 0.00 36 1009.6
20260503232939 15 0 0.0 6.4 0.00 0.00 0.00 36 1009.8
20260503232913 15 0 0.0 6.4 0.00 0.00 0.00 35 1009.7
20260503232838 15 0 0.0 6.4 0.00 0.00 0.00 35 1009.7
20260503232737 15 0 0.0 6.4 0.00 0.00 0.00 35 1009.7
20260503232638 15 0 0.0 6.4 0.00 0.00 0.00 35 1009.8
20260503232537 15 0 0.0 6.4 0.00 0.00 0.00 35 1009.8
20260503232520 15 360 0.0 6.4 0.00 0.00 0.00 35 1009.6
20260503232413 15 0 0.0 6.4 0.00 0.00 0.00 34 1009.8
20260503232336 15 0 0.0 6.4 0.00 0.00 0.00 34 1009.8
20260503232236 15 0 0.0 6.4 0.00 0.00 0.00 34 1009.7
20260503232135 15 0 0.0 6.4 0.00 0.00 0.00 35 1009.7
20260503232035 15 0 0.0 3.2 0.00 0.00 0.00 35 1009.7
20260503232020 15 360 0.0 3.2 0.00 0.00 0.00 35 1009.5
20260503231913 15 0 0.0 3.2 0.00 0.00 0.00 34 1009.7
20260503231834 15 0 0.0 3.2 0.00 0.00 0.00 34 1009.7
20260503231733 15 0 0.0 3.2 0.00 0.00 0.00 34 1009.8
20260503231633 15 0 0.0 3.2 0.00 0.00 0.00 35 1009.7
20260503231535 15 360 0.0 3.2 0.00 0.00 0.00 34 1009.5
20260503231533 15 0 0.0 3.2 0.00 0.00 0.00 34 1009.7
20260503231413 15 0 0.0 3.2 0.00 0.00 0.00 34 1009.7
20260503231345 15 0 0.0 3.2 0.00 0.00 0.00 34 1009.7
20260503231341 15 0 0.0 3.2 0.00 0.00 0.00 34 1009.7
20260503231130 15 0 0.0 3.2 0.00 0.00 0.00 33 1009.7
20260503231030 15 0 0.0 3.2 0.00 0.00 0.00 34 1009.7
20260503231020 15 360 0.0 1.6 0.00 0.00 0.00 34 1009.5
20260503230911 15 0 0.0 1.6 0.00 0.00 0.00 34 1009.7
20260503230829 15 0 0.0 3.2 0.00 0.00 0.00 35 1009.7
20260503230729 15 0 0.0 3.2 0.00 0.00 0.00 34 1009.7
20260503230628 15 0 0.0 6.4 0.00 0.00 0.00 34 1009.7
20260503230600 15 0 0.0 6.4 0.00 0.00 0.00 33 1009.7
20260503230556 15 0 0.0 6.4 0.00 0.00 0.00 33 1009.7
20260503230551 15 0 0.0 6.4 0.00 0.00 0.00 33 1009.7
20260503230520 15 360 0.0 6.4 0.00 0.00 0.00 33 1009.5
20260503230434 15 0 0.0 6.4 0.00 0.00 0.00 33 1009.7
20260503230227 15 0 0.0 12.9 0.00 0.00 0.00 33 1009.7
20260503230126 15 0 0.0 12.9 0.00 0.00 0.00 33 1009.7
20260503230039 15 0 0.0 12.9 0.00 0.00 0.00 32 1009.6
20260503230035 15 0 0.0 12.9 0.00 0.00 0.00 33 1009.6
20260503230020 15 360 0.0 12.9 0.00 0.00 0.00 33 1009.4
20260503225911 15 0 0.0 12.9 0.00 0.00 0.00 32 1009.6
20260503225824 15 0 0.0 12.9 0.00 0.00 0.00 33 1009.6
20260503225723 15 0 0.0 12.9 0.00 0.00 0.00 34 1009.6
20260503225622 15 0 0.0 12.9 0.00 0.00 0.00 33 1009.6
20260503225522 16 0 0.0 12.9 0.00 0.00 0.00 33 1009.6
20260503225520 16 360 3.2 12.9 0.00 0.00 0.00 32 1009.4
20260503225411 16 0 0.0 12.9 0.00 0.00 0.00 33 1009.6
20260503225321 16 0 0.0 12.9 0.00 0.00 0.00 33 1009.6
20260503225219 16 0 0.0 12.9 0.00 0.00 0.00 33 1009.6
20260503225147 16 0 0.0 12.9 0.00 0.00 0.00 33 1009.6
20260503225143 16 0 0.0 12.9 0.00 0.00 0.00 32 1009.6
20260503225137 16 0 0.0 12.9 0.00 0.00 0.00 32 1009.6
20260503225020 16 360 0.0 12.9 0.00 0.00 0.00 33 1009.4
20260503224908 16 0 0.0 12.9 0.00 0.00 0.00 33 1009.6
20260503224831 16 0 0.0 12.9 0.00 0.00 0.00 33 1009.6
20260503224827 16 0 0.0 12.9 0.00 0.00 0.00 32 1009.6
20260503224631 16 0 0.0 4.8 0.00 0.00 0.00 32 1009.6
20260503224617 16 0 0.0 4.8 0.00 0.00 0.00 32 1009.6
20260503224526 16 0 0.0 4.8 0.00 0.00 0.00 32 1009.6
20260503224520 16 360 0.0 4.8 0.00 0.00 0.00 32 1009.4
20260503224517 16 0 0.0 4.8 0.00 0.00 0.00 32 1009.6
20260503224315 16 0 0.0 4.8 0.00 0.00 0.00 32 1009.7
20260503224215 16 0 0.0 4.8 0.00 0.00 0.00 33 1009.6
20260503224128 16 0 0.0 4.8 0.00 0.00 0.00 32 1009.7
20260503224124 16 0 0.0 4.8 0.00 0.00 0.00 31 1009.7
20260503224051 16 360 0.0 4.8 0.00 0.00 0.00 32 1009.5
20260503223908 16 0 0.0 4.8 0.00 0.00 0.00 31 1009.7
20260503223827 16 0 0.0 4.8 0.00 0.00 0.00 31 1009.7
20260503223823 16 0 0.0 4.8 0.00 0.00 0.00 31 1009.7
20260503223627 16 0 0.0 6.4 0.00 0.00 0.00 31 1009.6
20260503223623 16 0 0.0 6.4 0.00 0.00 0.00 31 1009.7
20260503223521 16 360 0.0 6.4 0.00 0.00 0.00 31 1009.4
20260503223408 16 0 0.0 6.4 0.00 0.00 0.00 32 1009.7
20260503223313 16 0 0.0 9.7 0.00 0.00 0.00 32 1009.6
20260503223243 16 0 0.0 9.7 0.00 0.00 0.00 32 1009.7
20260503223112 16 0 0.0 17.7 0.00 0.00 0.00 32 1009.7
20260503223024 16 0 0.0 17.7 0.00 0.00 0.00 32 1009.7
20260503223021 16 360 0.0 17.7 0.00 0.00 0.00 32 1009.5
20260503223015 16 0 0.0 17.7 0.00 0.00 0.00 32 1009.6
20260503222822 16 0 0.0 17.7 0.00 0.00 0.00 31 1009.6
20260503222818 16 0 0.0 17.7 0.00 0.00 0.00 32 1009.6
20260503222609 16 0 0.0 17.7 0.00 0.00 0.00 31 1009.6
20260503222535 16 360 0.0 17.7 0.00 0.00 0.00 31 1009.4
20260503222506 16 0 0.0 17.7 0.00 0.00 0.00 31 1009.6
20260503222425 16 0 0.0 17.7 0.00 0.00 0.00 31 1009.6
20260503222416 16 0 0.0 17.7 0.00 0.00 0.00 32 1009.6
20260503222205 16 248 0.0 17.7 0.00 0.00 0.00 31 1009.6
20260503222104 16 265 0.0 22.5 0.00 0.00 0.00 31 1009.5
20260503222020 16 290 0.0 22.5 0.00 0.00 0.00 31 1009.4
20260503222004 16 288 0.0 22.5 0.00 0.00 0.00 31 1009.6
20260503221905 16 246 0.0 22.5 0.00 0.00 0.00 31 1009.5
20260503221803 16 236 0.0 22.5 0.00 0.00 0.00 31 1009.5
20260503221703 16 225 0.0 22.5 0.00 0.00 0.00 31 1009.5
20260503221602 16 0 0.0 22.5 0.00 0.00 0.00 32 1009.5
20260503221520 16 360 0.0 22.5 0.00 0.00 0.00 32 1009.2
20260503221501 16 0 0.0 22.5 0.00 0.00 0.00 31 1009.4
20260503221406 16 0 0.0 22.5 0.00 0.00 0.00 31 1009.5
20260503221400 16 0 0.0 22.5 0.00 0.00 0.00 31 1009.5
20260503221300 16 0 0.0 22.5 0.00 0.00 0.00 30 1009.5
20260503221200 16 0 0.0 22.5 0.00 0.00 0.00 30 1009.5
20260503221059 16 268 0.0 14.5 0.00 0.00 0.00 30 1009.5
20260503221035 16 237 0.0 14.5 0.00 0.00 0.00 31 1009.2
20260503220958 16 248 0.0 14.5 0.00 0.00 0.00 31 1009.4
20260503220904 16 223 0.0 12.9 0.00 0.00 0.00 31 1009.5
20260503220859 16 221 0.0 12.9 0.00 0.00 0.00 31 1009.5
20260503220757 16 263 0.0 12.9 0.00 0.00 0.00 31 1009.5
20260503220657 16 0 0.0 12.9 0.00 0.00 0.00 31 1009.5
20260503220556 16 0 0.0 12.9 0.00 0.00 0.00 30 1009.5
20260503220535 16 360 0.0 12.9 0.00 0.00 0.00 30 1009.3
20260503220456 16 0 0.0 12.9 0.00 0.00 0.00 30 1009.5
20260503220401 16 0 0.0 12.9 0.00 0.00 0.00 30 1009.5
20260503220356 16 0 0.0 12.9 0.00 0.00 0.00 31 1009.5
20260503220253 16 0 0.0 12.9 0.00 0.00 0.00 31 1009.5
20260503220153 16 0 0.0 12.9 0.00 0.00 0.00 31 1009.5
20260503220053 16 0 0.0 9.7 0.00 0.00 0.00 31 1009.6
20260503220020 16 360 0.0 22.5 0.00 0.00 0.00 32 1009.4
20260503215951 16 0 1.6 24.1 0.00 0.00 0.00 32 1009.6
20260503215858 16 0 1.6 24.1 0.00 0.00 0.00 32 1009.5
20260503215850 16 0 1.6 24.1 0.00 0.00 0.00 31 1009.5
20260503215749 16 0 1.6 24.1 0.00 0.00 0.00 30 1009.5
20260503215649 16 0 1.6 24.1 0.00 0.00 0.00 31 1009.5
20260503215549 16 0 1.6 24.1 0.00 0.00 0.00 31 1009.5
20260503215520 16 360 0.0 24.1 0.00 0.00 0.00 30 1009.4
20260503215447 16 0 1.6 24.1 0.00 0.00 0.00 30 1009.6
20260503215406 16 0 1.6 24.1 0.00 0.00 0.00 31 1009.5
20260503215355 16 0 1.6 24.1 0.00 0.00 0.00 30 1009.5